Regional Weather Roundup
Issued by NWS

Home | Current Version | Previous Version | Graphics & Text | Print | Product List | Glossary On
Versions: 1 2 3 4 5 6 7 8 9 10 11 12 13 14 15 16 17 18 19 20 21 22 23 24 25 26 27 28 29 30 31 32 33 34 35 36 37 38 39 40 41 42 43 44 45 46 47 48 49 50
000
ASUS45 KCYS 290910
RWRWY

WYOMING REGIONAL WEATHER ROUNDUP
NATIONAL WEATHER SERVICE CHEYENNE WY
300 AM MDT MON MAY 29 2017

NOTE:  "FAIR" INDICATES FEW OR NO CLOUDS BELOW 12,000 FEET
WITH NO SIGNIFICANT WEATHER AND/OR OBSTRUCTIONS TO VISIBILITY.

WYZ001-291000-
YELLOWSTONE NATIONAL PARK

CITY           SKY/WX    TMP DP  RH WIND       PRES   REMARKS
LK YELLOWSTONE   N/A     29  29 100 CALM      30.39S
W YELLOWSTONE  NOT AVBL

$$
WYZ002>013-054>058-071-098>099-291000-
NORTHERN WYOMING

CITY           SKY/WX    TMP DP  RH WIND       PRES   REMARKS
JACKSON        FAIR      37  36  93 NE5       30.32S WCI  34
CODY           FAIR      49  42  77 S8        30.27F
GREYBULL       NOT AVBL
WORLAND        CLOUDY    50  48  93 S8        30.23F
SHERIDAN       FAIR      50  41  71 W12       30.21S
BUFFALO        FAIR      47  36  65 NW6       30.24S
GILLETTE       FAIR      46  42  86 W14       30.19S
HULETT         FAIR      45  37  76 SW5       30.18S
NEWCASTLE      FAIR      41  37  87 NW6       30.17F

$$
WYZ014>020-022>026-101>103-291000-
CENTRAL WYOMING

CITY           SKY/WX    TMP DP  RH WIND       PRES   REMARKS
BIG PINEY      FAIR      38  31  76 W6        30.33S WCI  33
PINEDALE       FAIR      36  32  87 W3        30.34S
DUBOIS         FAIR      36  32  87 NW7       30.35S WCI  30
LANDER         FAIR      45  39  79 CALM      30.28S
RIVERTON       FAIR      47  42  83 W5        30.28F
CASPER         FAIR      44  42  93 SW8       30.25F
DOUGLAS        FAIR      43  40  89 NW7       30.24S

$$
WYZ021-027>030-104>119-291000-
SOUTHERN WYOMING

CITY           SKY/WX    TMP DP  RH WIND       PRES   REMARKS
EVANSTON       FAIR      47  31  53 S6        30.29F
KEMMERER         N/A     45  34  65 NE13G20   30.33S
FORT BRIDGER   FAIR      43  32  65 S3        30.33S
ROCK SPRINGS   FAIR      43  36  76 E7        30.32S
DIXON            N/A     42  32  69 E12       30.30S
RAWLINS        FAIR      41  36  82 E3        30.31F
SARATOGA       FAIR      37  37 100 NW3       30.34S
LARAMIE        FAIR      37  34  89 SE7       30.32F WCI  32
CHEYENNE       FAIR      45  36  70 W8        30.28S
TORRINGTON     FAIR      50  42  74 NW3       30.17F
PINE BLUFFS    PTSUNNY   43  41  93 MISG      30.24S

$$



USA.gov is the U.S. government's official web portal to all federal, state and local government web resources and services.